Regional Weather Roundup
Issued by NWS

Home | Current Version | Previous Version | Text Only | Print | Product List | Glossary Off
Versions: 1 2 3 4 5 6 7 8 9 10 11 12 13 14 15 16 17 18 19 20 21 22 23 24 25 26 27 28 29 30 31 32 33 34 35 36 37 38 39 40 41 42 43 44 45 46 47 48 49 50

000
ASUS43 KLMK 302002
RWRKY
KENTUCKY REGIONAL WEATHER ROUNDUP
NATIONAL WEATHER SERVICE LOUISVILLE KY
400 PM EDT SUN AUG 30 2015

NOTE "FAIR" INDICATES FEW OR NO CLOUDS BELOW 12,000 FEET
WITH NO SIGNIFICANT WEATHER AND/OR OBSTRUCTIONS TO VISIBILITY.

KYZ001>023-026-027-061>063-070>075-302100-
WESTERN AND SOUTH CENTRAL KENTUCKY

CITY           SKY/WX    TMP DP  RH WIND       PRES   REMARKS
PADUCAH        PTSUNNY   84  70  62 S7        30.03F
HENDERSON      PTSUNNY   82  68  61 SE7       30.03F
OWENSBORO      MOSUNNY   85  73  67 S9        30.06F HX  91
HOPKINSVILLE   MOSUNNY   87  68  51 S7        30.05F HX  90
BOWLING GREEN  MOSUNNY   86  65  49 S6G21     30.08F
GLASGOW        MOSUNNY   82  64  54 S7        30.10F
$$

KYZ024-025-028>034-038-045-046-053-302100-
NORTH CENTRAL KENTUCKY

CITY           SKY/WX    TMP DP  RH WIND       PRES   REMARKS
LOUISVILLE/SDF PTSUNNY   80  64  58 S16G25    30.07F
LOUISVILLE/LOU PTSUNNY   82  68  62 VRB3      30.08F
FORT KNOX      MOSUNNY   84  69  60 S10       30.06F
$$

KYZ035>037-039>044-047>052-055>060-089>105-302100-
NORTHEAST KENTUCKY

CITY           SKY/WX    TMP DP  RH WIND       PRES   REMARKS
LEXINGTON      PTSUNNY   84  66  54 SW9       30.10F
COVINGTON      PTSUNNY   86  64  47 S9        30.07F
FRANKFORT      PTSUNNY   85  65  51 S12       30.07F
$$

KYZ054-064>069-076>088-106>120-302100-
SOUTHEAST KENTUCKY

CITY           SKY/WX    TMP DP  RH WIND       PRES   REMARKS
JACKSON        CLOUDY    80  66  62 CALM      30.14F
LONDON         CLOUDY    81  60  48 SW3       30.14F
SOMERSET       NOT AVBL
MIDDLESBORO    CLOUDY    79  67  65 CALM      30.14F
MONTICELLO     CLOUDY    81  65  58 CALM      30.15F
$$




USA.gov is the U.S. government's official web portal to all federal, state and local government web resources and services.